Location: Clifton Park
(41.4873°N, 81.8024°W)
Time: 16:04:49
(UTC+00:00)

ATLAS 5 CENTAUR R/B - Pass Details

Date: 21 January 2020
Orbit: 283 x 14333 km, 60.7° (Epoch: 18 February)

Event Time Altitude Azimuth Distance (km) Brightness Sun altitude
Rises 00:41:07 0° 329° (NNW) 2,934 5.9 -24.7°
Reaches altitude 10° 00:42:44 10° 340° (NNW) 2,406 5.2 -25.0°
Maximum altitude 00:47:51 38° 50° (NE) 2,224 4.4 -26.0°
Enters shadow 00:48:02 38° 53° (NE) 2,265 4.4 -26.0°
Exits shadow 01:18:44 - 122° (ESE) 12,011 8.1 -31.7°
Sets 01:18:53 0° 123° (ESE) 12,049 8.2 -31.8°
